Location: Bruderhein
(53.8035°N, 112.9265°W)
Time: 00:31:28
(UTC+00:00)

Gurwin Techsat 1B - Pass Details

Date: 24 April 2024
Orbit: 811 x 812 km, 98.9° (Epoch: 20 May)

Event Time Altitude Azimuth Distance (km) Brightness Sun altitude
Rises 10:28:05 0° 21° (NNE) 3,350 13.1 -13.1°
Reaches altitude 10° 10:30:39 10° 30° (NNE) 2,413 12.4 -12.8°
Maximum altitude 10:35:30 34° 96° (E) 1,309 10.1 -12.3°
Drops below altitude 10° 10:40:19 10° 161° (SSE) 2,397 10.8 -11.8°
Sets 10:42:51 0° 170° (S) 3,323 11.5 -11.5°
